Regional Weather Roundup
Issued by NWS

Home | Current Version | Previous Version | Graphics & Text | Print | Product List | Glossary On
Versions: 1 2 3 4 5 6 7 8 9 10 11 12 13 14 15 16 17 18 19 20 21 22 23 24 25 26 27 28 29 30 31 32 33 34 35 36 37 38 39 40 41 42 43 44 45 46 47 48 49 50
036
ASUS45 KTFX 241510
RWRMT
MONTANA REGIONAL WEATHER ROUNDUP
NATIONAL WEATHER SERVICE GREAT FALLS MT
800 AM MST SAT FEB 24 2018

NOTE: "FAIR" INDICATES FEW OR NO CLOUDS BELOW 12000 FEET WITH NO
SIGNIFICANT WEATHER AND/OR OBSTRUCTIONS TO VISIBILITY.

MTZ001>007-043-241600-
WEST OF THE DIVIDE

CITY           SKY/WX    TMP DP  RH WIND       PRES   REMARKS
KALISPELL      FLURRIES  16  12  84 CALM      29.86F
MISSOULA       FAIR      14  10  84 W3        29.87F
BUTTE          CLOUDY    16   4  59 CALM      29.78S
MULLAN PASS    SNOW      12  11  95 VRB6      29.66F VSB 1/2 WCI   3
ANACONDA         N/A     18   5  57 MISG      29.78F
DEER LODGE       N/A     10   3  72 NW5       29.81S
HAMILTON         N/A     21  10  63 MISG      29.85F
PLAINS           N/A     18   8  64 MISG      29.90F
RONAN            N/A     19  14  79 CALM      29.86F
$$

MTZ008-052>055-241600-
SOUTHWEST MONTANA

CITY           SKY/WX    TMP DP  RH WIND       PRES   REMARKS
BOZEMAN        CLOUDY    21   8  57 E5        29.82F
DILLON         FAIR      10   6  84 SW18      29.81F WCI  -8
ENNIS          CLOUDY    16   7  67 S15       29.86S WCI   1
W YELLOWSTONE  MOCLDY     9   3  78 SW8G16    29.83R HAZE    WCI  -4
THREE FORKS      N/A     21   8  57 CALM      29.83F
TWIN BRIDGES     N/A     20   4  50 CALM      29.84F
$$

MTZ009-010-012-014-046-048-049-054-241600-
EAST SLOPES AND CENTRAL MONTANA

CITY           SKY/WX    TMP DP  RH WIND       PRES   REMARKS
CUT BANK       FAIR      16   7  67 W22       29.63S WCI  -2
GREAT FALLS    FAIR      17   7  64 SW21      29.71S WCI   0
MALMSTROM AFB  FAIR      19   9  64 SW22G28   29.73S WCI   3
HELENA         CLOUDY    21   9  59 SE5       29.81F
AUGUSTA          N/A     19  11  72 W30       29.65F WCI   0
BOWMANS CRNR   MOCLDY    14   7  74 S16       29.68F WCI  -2
CHOTEAU          N/A     25   7  46 W20       29.69S WCI  11
CONRAD           N/A     14   3  61 SE2       29.72
FAIRFIELD      MOCLDY    21   6  53 SW9       29.68S WCI  11
POWER          FAIR       8   1  76 SW8       29.69F WCI  -5
RAYNESFORD     MOCLDY    22   7  51 SW24G31   29.70R WCI   6
ULM            FAIR      17   8  67 SW15      29.74F WCI   3
WHITE SULPHUR    N/A     16   7  67 S9        29.73S WCI   4
$$

MTZ011-013-016-021-045-047-050-051-241600-
NORTH CENTRAL MONTANA

CITY           SKY/WX    TMP DP  RH WIND       PRES   REMARKS
HAVRE          FAIR      12   6  77 SW26      29.69F WCI  -8
LEWISTOWN      FAIR      10   3  73 SW18      29.70S WCI  -8
N BAR RANCH    FAIR      14   1  57 CALM      29.71S
CHINOOK          N/A     19  10  68 W17       29.69F WCI   4
GEYSER         FAIR      18   8  65 W26       29.67F WCI  -1
STANFORD       FAIR      19   8  63 W28       29.67S WCI   0
WINIFRED       FAIR      13   4  70 SW13      29.68F WCI  -2
$$

MTZ017>020-022>027-061-062-241600-
NORTHEAST MONTANA

CITY           SKY/WX    TMP DP  RH WIND       PRES   REMARKS
GLASGOW        CLOUDY     2  -3  80 E8        29.71F WCI -12
GLENDIVE       FAIR      -9 -15  75 S9        29.76F WCI -26
JORDAN           N/A     10   2  69 W6        29.73F WCI   0
MALTA          MOCLDY     7   3  85 W7        29.70F WCI  -5
SIDNEY         FAIR      -5 -10  79 S14       29.77F WCI -25
WOLF POINT     FAIR     -18 -24  74 W3        29.76F
PLENTYWOOD       N/A     -2  -8  78 E6        29.69F WCI -14
POPLAR           N/A     -9 -15  77 CALM      29.77S
SCOBEY           N/A      2  -8  62 CALM      29.68F
$$

MTZ028>42-056>058-241600-
SOUTHCENTRAL AND SOUTHEAST MONTANA

CITY           SKY/WX    TMP DP  RH WIND       PRES   REMARKS
BAKER          FAIR       5   1  83 W5        29.76R
BILLINGS       MOCLDY    15   4  61 SW15      29.78S WCI   0
LIVINGSTON     CLOUDY    22   9  57 SW29G41   29.77R WCI   4
MILES CITY     FAIR      -6  -9  86 S8        29.80S WCI -21
BIG TIMBER     PTCLDY    21  10  63 W33       29.74F HAZE    WCI   2
EKALAKA          N/A     15   2  56 SW16      29.73F WCI  -1
FORSYTH          N/A      0  -6  78 CALM      29.80R
HARLOWTON      MOCLDY    17   8  68 NW21      29.72R WCI  -1
LAUREL           N/A     12   3  67 SW13      29.80R WCI  -3
$$

REGIONAL REPORTS...DAKOTAS

CITY           SKY/WX    TMP DP  RH WIND       PRES   REMARKS
WILLISTON      FAIR      -4  -8  83 S6        29.76F WCI -16
MINOT          CLOUDY    12   2  64 S18       29.78F WCI  -6
DICKINSON      LGT SNOW  13  10  88 S9        29.73F VSB 3/4 WCI   1
BEACH          FAIR      10   3  72 SW8       29.77R WCI  -1
CROSBY         FAIR       1  -6  71 S17       29.72F WCI -19
TIOGA          FAIR       7   1  78 SW7       29.75R WCI  -5
WATFORD CITY   FAIR       5   1  85 SW6       29.76S WCI  -6
BISMARCK       CLOUDY     8   3  80 CALM      29.88F
GRAND FORKS    FAIR       3  -1  83 S16       30.01F WCI -16
FARGO          FAIR       2  -1  88 S10       30.06F FOG     WCI -14
BUFFALO SD       N/A      8   5  87 NW7       29.68S WCI  -3
RAPID CITY     FAIR      12   7  80 NW3       29.73S
$$

REGIONAL REPORTS...WYOMING/IDAHO/WASHINGTON

CITY           SKY/WX    TMP DP  RH WIND       PRES   REMARKS
GILLETTE       FAIR       0  -3  87 CALM      29.73S
SHERIDAN       CLOUDY     1  -6  72 S7        29.77R WCI -12
BUFFALO WY     CLOUDY    12  -3  51 SE5       29.73R
CODY           FAIR      21   1  41 W17G32    29.77R WCI   7
YELLOWSTONE LA   N/A      3  -3  76 W7        29.77F WCI  -9
IDAHO FALLS    CLOUDY    17   9  70 SW16      30.01S WCI   2
SALMON         CLOUDY    19  13  77 NW5       29.93F
BOISE          FLURRIES  25  21  85 SE14      30.04F WCI  13
SPOKANE        LGT SNOW  26  23  88 E3        29.83F VSB 3/4
$$

REGIONAL REPORTS...ALBERTA

CITY           SKY/WX    TMP DP  RH WIND       PRES   REMARKS
CALGARY        MOCLDY    21  -2  35 W18G29    29.58R WCI   6
CARDSTON         N/A     19   5  53 W18G28      N/A  WCI   4
EDMONTON       CLEAR     16   5  62 W10       29.54R WCI   3
FORT MCMURRAY  CLEAR     14  10  85 NW10      29.59R WCI   1
HIGH LEVEL     PTCLDY     7   3  85 N3        29.71R
LETHBRIDGE     PTCLDY    18   9  68 W28G37    29.64R WCI  -1
LLOYDMINSTER   PTCLDY    14   9  79 W15       29.47S WCI  -1
MEDICINE HAT   LGT SNOW  21  16  79 W10       29.64R DRFTSNOWWCI  10
MILK RIVER       N/A     14   7  73 W21         N/A  WCI  -4
ONEFOUR          N/A     10   5  79 NW18        N/A  WCI  -8
PEACE RIVER    FLURRIES  16  10  79 N8        29.66R WCI   5
PINCHER CREEK  CLEAR     14   5  67 W16       29.66R WCI  -2
$$

REGIONAL REPORTS...SASKATCHEWAN

CITY           SKY/WX    TMP DP  RH WIND       PRES   REMARKS
CORONACH         N/A      5   0  78 SE5         N/A
ESTEVAN        MOSUNNY    5  -4  66 S9        29.71F WCI  -9
MOOSE JAW        N/A     14   7  73 SW12        N/A  WCI   0
PRINCE ALBERT  MOCLDY     7   1  78 SW7       29.52S WCI  -5
REGINA         PTCLDY     0  -6  78 SE9       29.61F WCI -16
ROCKGLEN         N/A      7   0  72 SW18        N/A  WCI -12
SASKATOON      MOCLDY    10   5  79 SW10      29.54S WCI  -3
VAL MARIE        N/A     14   9  79 SW12G17     N/A  WCI   0
$$




USA.gov is the U.S. government's official web portal to all federal, state and local government web resources and services.